Monroe, MI

7:26 PM EST on December 09, 2016 (GMT -0500)
Custer

Weather History for KTTF - June, 2014

Change the Weather History Date:

Saturday, June 7, 2014

  Actual Average Record
Temperature  
Mean Temperature 64 °F -  
Max Temperature 78 °F 79 °F 98 °F (1933)
Min Temperature 51 °F 57 °F 41 °F (1935)
Growing Degree Days 14 (Base 50)    
Moisture  
Dew Point 54 °F    
Average Humidity 64    
Maximum Humidity 100    
Minimum Humidity 36    
Precipitation  
Precipitation 0.00 in - - ()
Sea Level Pressure  
Sea Level Pressure 29.98 in    
Wind  
Wind Speed 3 mph (ESE)    
Max Wind Speed 10 mph    
Max Gust Speed -    
Visibility 10 miles    
Events      
Averages and records for this station are not official NWS values.
T = Trace of Precipitation, MM = Missing Value Source: NWS Daily Summary

Daily Weather History Graph

Daily Weather History Graph

Search for Another Location

Airport or City:

Trip Planner

Search our weather history database for the weather conditions in past years. The results will help you decide how hot, cold, wet, or windy it might be!

Date:

Astronomy

Jun. 07, 2014 Rise Set
Actual Time 5:58 AM EDT 9:06 PM EDT
Civil Twilight 5:24 AM EDT 9:40 PM EDT
Nautical Twilight 4:41 AM EDT 10:24 PM EDT
Astronomical Twilight 3:49 AM EDT 11:16 PM EDT
Moon 3:18 PM EDT (6/7) 2:25 AM EDT (6/7)
Length of Visible Light 16h 16m
Length of Day
15h 08m
Waxing Gibbous, 67% of the Moon is Illuminated
Jun 7
Waxing Gibbous
Jun 13
Full
Jun 19
Last Quarter
Jun 27
New
Jul 5
First Quarter

Hourly Weather History & Observations

Time (EDT) Temp. Dew Point Humidity Pressure Visibility Wind Dir Wind Speed Gust Speed Precip Events Conditions
12:11 AM 57.2 °F 55.4 °F 94% 30.01 in 10.0 mi Calm Calm - N/A   Clear
12:51 AM 57.2 °F 55.4 °F 94% 30.01 in 10.0 mi Calm Calm - N/A   Clear
1:11 AM 57.2 °F 53.6 °F 88% 30.01 in 10.0 mi Calm Calm - N/A   Clear
1:32 AM 57.2 °F 55.4 °F 94% 30.00 in 10.0 mi Calm Calm - N/A   Clear
2:12 AM 55.4 °F 53.6 °F 94% 30.00 in 10.0 mi Calm Calm - N/A   Clear
2:52 AM 55.4 °F 53.6 °F 94% 30.01 in 10.0 mi Calm Calm - N/A   Clear
3:12 AM 55.4 °F 53.6 °F 94% 30.01 in 10.0 mi Calm Calm - N/A   Clear
3:32 AM 55.4 °F 53.6 °F 94% 30.01 in 10.0 mi Calm Calm - N/A   Clear
3:52 AM 53.6 °F 51.8 °F 94% 30.01 in 7.0 mi Calm Calm - N/A   Clear
4:12 AM 53.6 °F 51.8 °F 94% 30.01 in 5.0 mi Calm Calm - N/A   Clear
4:33 AM 53.6 °F 51.8 °F 94% 30.01 in 3.0 mi Calm Calm - N/A   Clear
4:53 AM 53.6 °F 51.8 °F 94% 30.00 in 7.0 mi Calm Calm - N/A   Clear
5:13 AM 51.8 °F 51.8 °F 100% 30.01 in 2.0 mi Calm Calm - N/A   Clear
5:33 AM 51.8 °F 51.8 °F 100% 30.01 in 4.0 mi Calm Calm - N/A   Clear
5:53 AM 51.8 °F 51.8 °F 100% 30.00 in 10.0 mi Calm Calm - N/A   Clear
6:13 AM 51.8 °F 50.0 °F 94% 30.01 in 10.0 mi Calm Calm - N/A   Clear
6:33 AM 51.8 °F 51.8 °F 100% 30.02 in 10.0 mi Calm Calm - N/A   Clear
6:53 AM 53.6 °F 53.6 °F 100% 30.03 in 10.0 mi Calm Calm - N/A   Clear
7:13 AM 55.4 °F 53.6 °F 94% 30.03 in 10.0 mi Calm Calm - N/A   Clear
8:14 AM 64.4 °F 55.4 °F 73% 30.05 in 10.0 mi Calm Calm - N/A   Clear
8:54 AM 68.0 °F 51.8 °F 56% 30.06 in 10.0 mi Calm Calm - N/A   Clear
9:14 AM 69.8 °F 53.6 °F 56% 30.05 in 10.0 mi Calm Calm - N/A   Clear
9:34 AM 71.6 °F 53.6 °F 53% 30.04 in 10.0 mi ENE 3.5 mph - N/A   Clear
9:54 AM 73.4 °F 53.6 °F 50% 30.04 in 10.0 mi East 3.5 mph - N/A   Clear
10:14 AM 73.4 °F 53.6 °F 50% 30.03 in 10.0 mi East 6.9 mph - N/A   Clear
10:34 AM 75.2 °F 57.2 °F 53% 30.02 in 10.0 mi ESE 6.9 mph - N/A   Clear
10:54 AM 73.4 °F 59.0 °F 61% 30.02 in 10.0 mi East 8.1 mph - N/A   Clear
11:15 AM 75.2 °F 55.4 °F 50% 30.02 in 10.0 mi ESE 9.2 mph - N/A   Clear
11:35 AM 75.2 °F 53.6 °F 47% 30.02 in 10.0 mi SE 10.4 mph - N/A   Clear
11:55 AM 75.2 °F 53.6 °F 47% 30.02 in 10.0 mi ESE 6.9 mph - N/A   Clear
12:15 PM 75.2 °F 53.6 °F 47% 30.01 in 10.0 mi SSE 8.1 mph - N/A   Clear
12:35 PM 77.0 °F 53.6 °F 44% 30.02 in 10.0 mi SSE 5.8 mph - N/A   Clear
12:55 PM 77.0 °F 53.6 °F 44% 30.02 in 10.0 mi SE 6.9 mph - N/A   Clear
1:15 PM 77.0 °F 53.6 °F 44% 30.01 in 10.0 mi SE 8.1 mph - N/A   Clear
1:35 PM 77.0 °F 53.6 °F 44% 30.01 in 10.0 mi SE 6.9 mph - N/A   Clear
2:15 PM 78.8 °F 51.8 °F 39% 29.99 in 10.0 mi ESE 9.2 mph - N/A   Clear
2:36 PM 78.8 °F 51.8 °F 39% 29.99 in 10.0 mi ESE 9.2 mph - N/A   Clear
2:56 PM 77.0 °F 53.6 °F 44% 29.98 in 10.0 mi East 9.2 mph - N/A   Clear
3:16 PM 78.8 °F 53.6 °F 42% 29.97 in 10.0 mi ESE 9.2 mph - N/A   Clear
3:36 PM 78.8 °F 51.8 °F 39% 29.96 in 10.0 mi ESE 10.4 mph - N/A   Clear
3:56 PM 78.8 °F 50.0 °F 36% 29.95 in 10.0 mi SE 9.2 mph - N/A   Clear
4:16 PM 78.8 °F 51.8 °F 39% 29.95 in 10.0 mi SE 9.2 mph - N/A   Clear
4:51 PM 77.0 °F 51.8 °F 41% 29.94 in 10.0 mi East 9.2 mph - N/A   Clear
5:11 PM 75.2 °F 50.0 °F 41% 29.94 in 10.0 mi ESE 10.4 mph - N/A   Clear
5:32 PM 75.2 °F 50.0 °F 41% 29.94 in 10.0 mi ESE 8.1 mph - N/A   Clear
5:52 PM 75.2 °F 50.0 °F 41% 29.94 in 10.0 mi ESE 10.4 mph - N/A   Clear
6:12 PM 75.2 °F 51.8 °F 44% 29.93 in 10.0 mi ESE 9.2 mph - N/A   Clear
6:32 PM 73.4 °F 50.0 °F 44% 29.93 in 10.0 mi East 6.9 mph - N/A   Clear
6:52 PM 75.2 °F 51.8 °F 44% 29.92 in 10.0 mi ESE 6.9 mph - N/A   Clear
7:12 PM 75.2 °F 53.6 °F 47% 29.91 in 10.0 mi East 9.2 mph - N/A   Clear
7:32 PM 73.4 °F 51.8 °F 47% 29.91 in 10.0 mi East 6.9 mph - N/A   Clear
7:52 PM 73.4 °F 51.8 °F 47% 29.91 in 10.0 mi ESE 8.1 mph - N/A   Clear
8:12 PM 71.6 °F 53.6 °F 53% 29.91 in 10.0 mi ESE 4.6 mph - N/A   Clear
8:33 PM 71.6 °F 53.6 °F 53% 29.91 in 10.0 mi East 6.9 mph - N/A   Clear
8:53 PM 69.8 °F 55.4 °F 60% 29.90 in 10.0 mi East 5.8 mph - N/A   Clear
9:13 PM 69.8 °F 55.4 °F 60% 29.90 in 10.0 mi East 4.6 mph - N/A   Clear
9:33 PM 69.8 °F 55.4 °F 60% 29.90 in 10.0 mi ESE 4.6 mph - N/A   Clear
9:53 PM 68.0 °F 55.4 °F 64% 29.89 in 10.0 mi East 4.6 mph - N/A   Clear
10:13 PM 68.0 °F 57.2 °F 68% 29.89 in 10.0 mi ESE 5.8 mph - N/A   Clear
10:33 PM 68.0 °F 57.2 °F 68% 29.89 in 10.0 mi ESE 6.9 mph - N/A   Clear
10:53 PM 68.0 °F 59.0 °F 73% 29.89 in 10.0 mi East 5.8 mph - N/A   Clear
11:13 PM 68.0 °F 59.0 °F 73% 29.89 in 10.0 mi East 6.9 mph - N/A   Clear
11:34 PM 68.0 °F 59.0 °F 73% 29.88 in 10.0 mi ESE 5.8 mph - N/A   Clear
11:54 PM 68.0 °F 59.0 °F 73% 29.88 in 10.0 mi East 6.9 mph - N/A   Clear